owner,sensor,date,latitude,longitude,air_temperature,qcFlag 
DISL,ioos:station:DISL:BSCA:1,2018-08-06T16:00:00Z,30.3288,-87.8293,30.0,11111222 
DISL,ioos:station:DISL:BSCA:1,2018-08-06T16:30:00Z,30.3288,-87.8293,30.4,11111222 
DISL,ioos:station:DISL:BSCA:1,2018-08-06T17:00:00Z,30.3288,-87.8293,30.4,11111222 
DISL,ioos:station:DISL:BSCA:1,2018-08-06T17:30:00Z,30.3288,-87.8293,30.2,11111222 
DISL,ioos:station:DISL:BSCA:1,2018-08-06T18:00:00Z,30.3288,-87.8293,30.4,11111222 
DISL,ioos:station:DISL:BSCA:1,2018-08-06T18:30:00Z,30.3288,-87.8293,30.4,11111222 
DISL,ioos:station:DISL:BSCA:1,2018-08-06T19:00:00Z,30.3288,-87.8293,30.4,11111222 
DISL,ioos:station:DISL:BSCA:1,2018-08-06T19:30:00Z,30.3288,-87.8293,30.2,11111222 
DISL,ioos:station:DISL:BSCA:1,2018-08-06T20:00:00Z,30.3288,-87.8293,30.3,11111222 
DISL,ioos:station:DISL:BSCA:1,2018-08-06T20:14:00Z,30.3288,-87.8293,30.19,1111122 
DISL,ioos:station:DISL:BSCA:1,2018-08-06T20:30:00Z,30.3288,-87.8293,30.0,11111222 
DISL,ioos:station:DISL:BSCA:1,2018-08-06T21:00:00Z,30.3288,-87.8293,29.9,11111222 
DISL,ioos:station:DISL:BSCA:1,2018-08-06T21:30:00Z,30.3288,-87.8293,29.6,11111222 
DISL,ioos:station:DISL:BSCA:1,2018-08-06T22:00:00Z,30.3288,-87.8293,29.7,11111222 
DISL,ioos:station:DISL:BSCA:1,2018-08-06T22:30:00Z,30.3288,-87.8293,29.6,11111222 
DISL,ioos:station:DISL:BSCA:1,2018-08-06T23:00:00Z,30.3288,-87.8293,29.7,11111222 
DISL,ioos:station:DISL:BSCA:1,2018-08-06T23:30:00Z,30.3288,-87.8293,29.6,11111222 
DISL,ioos:station:DISL:BSCA:1,2018-08-07T00:00:00Z,30.3288,-87.8293,29.8,11111222 
DISL,ioos:station:DISL:BSCA:1,2018-08-07T00:30:00Z,30.3288,-87.8293,29.5,11111222 
DISL,ioos:station:DISL:BSCA:1,2018-08-07T01:00:00Z,30.3288,-87.8293,29.4,11111222 
DISL,ioos:station:DISL:BSCA:1,2018-08-07T01:30:00Z,30.3288,-87.8293,29.4,11111222 
DISL,ioos:station:DISL:BSCA:1,2018-08-07T02:00:00Z,30.3288,-87.8293,29.5,11111222 
DISL,ioos:station:DISL:BSCA:1,2018-08-07T02:30:00Z,30.3288,-87.8293,29.4,11111222 
DISL,ioos:station:DISL:BSCA:1,2018-08-07T03:00:00Z,30.3288,-87.8293,29.4,11111222 
DISL,ioos:station:DISL:BSCA:1,2018-08-07T03:30:00Z,30.3288,-87.8293,29.2,11111222 
DISL,ioos:station:DISL:BSCA:1,2018-08-07T04:00:00Z,30.3288,-87.8293,29.4,11111222 
DISL,ioos:station:DISL:BSCA:1,2018-08-07T04:30:00Z,30.3288,-87.8293,27.2,11111222 
DISL,ioos:station:DISL:BSCA:1,2018-08-07T05:00:00Z,30.3288,-87.8293,27.1,11111222 
DISL,ioos:station:DISL:BSCA:1,2018-08-07T05:30:00Z,30.3288,-87.8293,26.8,11111222 
DISL,ioos:station:DISL:BSCA:1,2018-08-07T06:00:00Z,30.3288,-87.8293,27.1,11111222 
DISL,ioos:station:DISL:BSCA:1,2018-08-07T06:30:00Z,30.3288,-87.8293,26.5,11111222 
DISL,ioos:station:DISL:BSCA:1,2018-08-07T07:00:00Z,30.3288,-87.8293,26.7,11111222 
DISL,ioos:station:DISL:BSCA:1,2018-08-07T07:30:00Z,30.3288,-87.8293,26.9,11111222 
DISL,ioos:station:DISL:BSCA:1,2018-08-07T08:00:00Z,30.3288,-87.8293,27.8,11111222 
DISL,ioos:station:DISL:BSCA:1,2018-08-07T08:30:00Z,30.3288,-87.8293,27.9,11111222 
DISL,ioos:station:DISL:BSCA:1,2018-08-07T09:00:00Z,30.3288,-87.8293,27.7,11111222 
DISL,ioos:station:DISL:BSCA:1,2018-08-07T09:30:00Z,30.3288,-87.8293,26.4,11111222 
DISL,ioos:station:DISL:BSCA:1,2018-08-07T10:00:00Z,30.3288,-87.8293,25.1,11111222 
DISL,ioos:station:DISL:BSCA:1,2018-08-07T10:30:00Z,30.3288,-87.8293,25.2,11111222 
DISL,ioos:station:DISL:BSCA:1,2018-08-07T11:00:00Z,30.3288,-87.8293,24.6,11111222 
DISL,ioos:station:DISL:BSCA:1,2018-08-07T11:30:00Z,30.3288,-87.8293,25.1,11111222 
DISL,ioos:station:DISL:BSCA:1,2018-08-07T12:00:00Z,30.3288,-87.8293,25.7,11111222 
DISL,ioos:station:DISL:BSCA:1,2018-08-07T12:30:00Z,30.3288,-87.8293,26.2,11111222 
DISL,ioos:station:DISL:BSCA:1,2018-08-07T13:00:00Z,30.3288,-87.8293,26.9,11111222 
DISL,ioos:station:DISL:BSCA:1,2018-08-07T13:30:00Z,30.3288,-87.8293,27.6,11111222 
DISL,ioos:station:DISL:BSCA:1,2018-08-07T14:00:00Z,30.3288,-87.8293,28.4,11111222 
DISL,ioos:station:DISL:BSCA:1,2018-08-07T14:30:00Z,30.3288,-87.8293,28.5,11111222 
DISL,ioos:station:DISL:BSCA:1,2018-08-07T15:00:00Z,30.3288,-87.8293,28.5,11111222 
DISL,ioos:station:DISL:BSCA:1,2018-08-07T15:30:00Z,30.3288,-87.8293,28.9,11111222 
DISL,ioos:station:DISL:BSCA:1,2018-08-07T16:00:00Z,30.3288,-87.8293,29.0,11111222 
DISL,ioos:station:DISL:BSCA:1,2018-08-07T16:30:00Z,30.3288,-87.8293,29.0,11111222 
DISL,ioos:station:DISL:BSCA:1,2018-08-07T17:00:00Z,30.3288,-87.8293,28.9,11111222 
DISL,ioos:station:DISL:BSCA:1,2018-08-07T17:30:00Z,30.3288,-87.8293,29.2,11111222 
DISL,ioos:station:DISL:BSCA:1,2018-08-07T18:00:00Z,30.3288,-87.8293,29.6,11111222 
DISL,ioos:station:DISL:BSCA:1,2018-08-07T18:30:00Z,30.3288,-87.8293,29.9,11111222 
DISL,ioos:station:DISL:BSCA:1,2018-08-07T19:00:00Z,30.3288,-87.8293,29.1,11111222 
DISL,ioos:station:DISL:BSCA:1,2018-08-07T19:30:00Z,30.3288,-87.8293,29.4,11111222 
DISL,ioos:station:DISL:BSCA:1,2018-08-07T20:00:00Z,30.3288,-87.8293,29.2,11111222 
DISL,ioos:station:DISL:BSCA:1,2018-08-07T21:00:00Z,30.3288,-87.8293,25.3,11111222 
DISL,ioos:station:DISL:BSCA:1,2018-08-07T21:30:00Z,30.3288,-87.8293,27.23,1111122 
DISL,ioos:station:DISL:BSCA:1,2018-08-07T22:00:00Z,30.3288,-87.8293,28.6,11111222 
DISL,ioos:station:DISL:BSCA:1,2018-08-07T22:30:00Z,30.3288,-87.8293,29.4,11111222 
DISL,ioos:station:DISL:BSCA:1,2018-08-07T23:00:00Z,30.3288,-87.8293,29.3,11111222 
DISL,ioos:station:DISL:BSCA:1,2018-08-07T23:30:00Z,30.3288,-87.8293,29.3,11111222 
DISL,ioos:station:DISL:BSCA:1,2018-08-08T00:00:00Z,30.3288,-87.8293,29.2,11111222 
DISL,ioos:station:DISL:BSCA:1,2018-08-08T00:30:00Z,30.3288,-87.8293,29.1,11111222 
DISL,ioos:station:DISL:BSCA:1,2018-08-08T01:00:00Z,30.3288,-87.8293,29.1,11111222 
DISL,ioos:station:DISL:BSCA:1,2018-08-08T01:30:00Z,30.3288,-87.8293,27.0,11111222 
DISL,ioos:station:DISL:BSCA:1,2018-08-08T02:00:00Z,30.3288,-87.8293,27.1,11111222 
DISL,ioos:station:DISL:BSCA:1,2018-08-08T02:30:00Z,30.3288,-87.8293,26.8,11111222 
DISL,ioos:station:DISL:BSCA:1,2018-08-08T03:00:00Z,30.3288,-87.8293,26.6,11111222 
DISL,ioos:station:DISL:BSCA:1,2018-08-08T03:30:00Z,30.3288,-87.8293,25.8,11111222 
DISL,ioos:station:DISL:BSCA:1,2018-08-08T04:00:00Z,30.3288,-87.8293,26.4,11111222 
DISL,ioos:station:DISL:BSCA:1,2018-08-08T04:30:00Z,30.3288,-87.8293,26.0,11111222 
DISL,ioos:station:DISL:BSCA:1,2018-08-08T05:00:00Z,30.3288,-87.8293,25.7,11111222 
DISL,ioos:station:DISL:BSCA:1,2018-08-08T05:30:00Z,30.3288,-87.8293,25.5,11111222 
DISL,ioos:station:DISL:BSCA:1,2018-08-08T06:00:00Z,30.3288,-87.8293,25.0,11111222 
DISL,ioos:station:DISL:BSCA:1,2018-08-08T06:30:00Z,30.3288,-87.8293,25.6,11111222 
DISL,ioos:station:DISL:BSCA:1,2018-08-08T07:00:00Z,30.3288,-87.8293,25.2,11111222 
DISL,ioos:station:DISL:BSCA:1,2018-08-08T07:30:00Z,30.3288,-87.8293,24.5,11111222 
DISL,ioos:station:DISL:BSCA:1,2018-08-08T08:00:00Z,30.3288,-87.8293,24.3,11111222 
DISL,ioos:station:DISL:BSCA:1,2018-08-08T08:30:00Z,30.3288,-87.8293,24.5,11111222 
DISL,ioos:station:DISL:BSCA:1,2018-08-08T09:00:00Z,30.3288,-87.8293,24.8,11111222 
DISL,ioos:station:DISL:BSCA:1,2018-08-08T09:30:00Z,30.3288,-87.8293,23.9,11111222 
DISL,ioos:station:DISL:BSCA:1,2018-08-08T10:00:00Z,30.3288,-87.8293,24.0,11111222 
DISL,ioos:station:DISL:BSCA:1,2018-08-08T10:30:00Z,30.3288,-87.8293,24.2,11111222 
DISL,ioos:station:DISL:BSCA:1,2018-08-08T11:00:00Z,30.3288,-87.8293,24.2,11111222 
DISL,ioos:station:DISL:BSCA:1,2018-08-08T11:30:00Z,30.3288,-87.8293,24.6,11111222 
DISL,ioos:station:DISL:BSCA:1,2018-08-08T12:00:00Z,30.3288,-87.8293,24.6,11111222 
DISL,ioos:station:DISL:BSCA:1,2018-08-08T12:30:00Z,30.3288,-87.8293,25.3,11111222 
DISL,ioos:station:DISL:BSCA:1,2018-08-08T13:00:00Z,30.3288,-87.8293,26.3,11111222 
DISL,ioos:station:DISL:BSCA:1,2018-08-08T13:30:00Z,30.3288,-87.8293,27.1,11111222 
DISL,ioos:station:DISL:BSCA:1,2018-08-08T14:00:00Z,30.3288,-87.8293,27.9,11111222 
DISL,ioos:station:DISL:BSCA:1,2018-08-08T14:30:00Z,30.3288,-87.8293,28.8,11111222 
DISL,ioos:station:DISL:BSCA:1,2018-08-08T15:00:00Z,30.3288,-87.8293,29.2,11111222 
DISL,ioos:station:DISL:BSCA:1,2018-08-08T15:30:00Z,30.3288,-87.8293,29.2,11111222 
DISL,ioos:station:DISL:BSCA:1,2018-08-08T16:00:00Z,30.3288,-87.8293,29.5,11111222 
DISL,ioos:station:DISL:BSCA:1,2018-08-08T16:30:00Z,30.3288,-87.8293,29.3,11111222 
DISL,ioos:station:DISL:BSCA:1,2018-08-08T17:00:00Z,30.3288,-87.8293,29.4,11111222 
DISL,ioos:station:DISL:BSCA:1,2018-08-08T17:30:00Z,30.3288,-87.8293,29.4,11111222 
DISL,ioos:station:DISL:BSCA:1,2018-08-08T18:00:00Z,30.3288,-87.8293,29.4,11111222 
DISL,ioos:station:DISL:BSCA:1,2018-08-08T18:30:00Z,30.3288,-87.8293,29.4,11111222 
DISL,ioos:station:DISL:BSCA:1,2018-08-08T19:00:00Z,30.3288,-87.8293,29.8,11111222 
DISL,ioos:station:DISL:BSCA:1,2018-08-08T19:30:00Z,30.3288,-87.8293,29.6,11111222 
DISL,ioos:station:DISL:BSCA:1,2018-08-08T20:00:00Z,30.3288,-87.8293,29.4,11111222 
DISL,ioos:station:DISL:BSCA:1,2018-08-08T20:30:00Z,30.3288,-87.8293,29.6,11111222 
DISL,ioos:station:DISL:BSCA:1,2018-08-08T21:00:00Z,30.3288,-87.8293,29.8,11111222 
DISL,ioos:station:DISL:BSCA:1,2018-08-08T21:30:00Z,30.3288,-87.8293,29.7,11111222 
DISL,ioos:station:DISL:BSCA:1,2018-08-08T22:00:00Z,30.3288,-87.8293,29.8,11111222 
DISL,ioos:station:DISL:BSCA:1,2018-08-08T22:30:00Z,30.3288,-87.8293,29.7,11111222 
DISL,ioos:station:DISL:BSCA:1,2018-08-08T23:00:00Z,30.3288,-87.8293,29.7,11111222 
DISL,ioos:station:DISL:BSCA:1,2018-08-08T23:30:00Z,30.3288,-87.8293,29.7,11111222 
DISL,ioos:station:DISL:BSCA:1,2018-08-09T00:00:00Z,30.3288,-87.8293,29.6,11111222 
DISL,ioos:station:DISL:BSCA:1,2018-08-09T00:30:00Z,30.3288,-87.8293,29.5,11111222 
DISL,ioos:station:DISL:BSCA:1,2018-08-09T01:00:00Z,30.3288,-87.8293,29.5,11111222 
DISL,ioos:station:DISL:BSCA:1,2018-08-09T01:30:00Z,30.3288,-87.8293,29.6,11111222 
DISL,ioos:station:DISL:BSCA:1,2018-08-09T02:00:00Z,30.3288,-87.8293,29.6,11111222 
DISL,ioos:station:DISL:BSCA:1,2018-08-09T02:30:00Z,30.3288,-87.8293,29.7,11111222 
DISL,ioos:station:DISL:BSCA:1,2018-08-09T03:00:00Z,30.3288,-87.8293,29.6,11111222 
DISL,ioos:station:DISL:BSCA:1,2018-08-09T03:30:00Z,30.3288,-87.8293,29.6,11111222 
DISL,ioos:station:DISL:BSCA:1,2018-08-09T04:00:00Z,30.3288,-87.8293,29.5,11111222 
DISL,ioos:station:DISL:BSCA:1,2018-08-09T04:30:00Z,30.3288,-87.8293,29.4,11111222 
DISL,ioos:station:DISL:BSCA:1,2018-08-09T05:00:00Z,30.3288,-87.8293,29.5,11111222 
DISL,ioos:station:DISL:BSCA:1,2018-08-09T05:30:00Z,30.3288,-87.8293,29.4,11111222 
DISL,ioos:station:DISL:BSCA:1,2018-08-09T06:00:00Z,30.3288,-87.8293,29.2,11111222 
DISL,ioos:station:DISL:BSCA:1,2018-08-09T06:30:00Z,30.3288,-87.8293,29.2,11111222 
DISL,ioos:station:DISL:BSCA:1,2018-08-09T07:00:00Z,30.3288,-87.8293,29.1,11111222 
DISL,ioos:station:DISL:BSCA:1,2018-08-09T07:30:00Z,30.3288,-87.8293,29.0,11111222 
DISL,ioos:station:DISL:BSCA:1,2018-08-09T08:00:00Z,30.3288,-87.8293,29.0,11111222 
DISL,ioos:station:DISL:BSCA:1,2018-08-09T08:30:00Z,30.3288,-87.8293,29.0,11111222 
DISL,ioos:station:DISL:BSCA:1,2018-08-09T09:00:00Z,30.3288,-87.8293,29.0,11111222 
DISL,ioos:station:DISL:BSCA:1,2018-08-09T09:30:00Z,30.3288,-87.8293,29.3,11111222 
DISL,ioos:station:DISL:BSCA:1,2018-08-09T10:00:00Z,30.3288,-87.8293,29.0,11111222 
DISL,ioos:station:DISL:BSCA:1,2018-08-09T10:30:00Z,30.3288,-87.8293,29.3,11111222 
DISL,ioos:station:DISL:BSCA:1,2018-08-09T11:00:00Z,30.3288,-87.8293,29.1,11111222 
DISL,ioos:station:DISL:BSCA:1,2018-08-09T11:30:00Z,30.3288,-87.8293,29.1,11111222 
DISL,ioos:station:DISL:BSCA:1,2018-08-09T12:00:00Z,30.3288,-87.8293,27.9,11111222 
DISL,ioos:station:DISL:BSCA:1,2018-08-09T12:30:00Z,30.3288,-87.8293,27.8,11111222 
DISL,ioos:station:DISL:BSCA:1,2018-08-09T13:00:00Z,30.3288,-87.8293,29.0,11111222 
DISL,ioos:station:DISL:BSCA:1,2018-08-09T13:30:00Z,30.3288,-87.8293,29.2,11111222 
DISL,ioos:station:DISL:BSCA:1,2018-08-09T14:00:00Z,30.3288,-87.8293,29.5,11111222 
DISL,ioos:station:DISL:BSCA:1,2018-08-09T14:30:00Z,30.3288,-87.8293,27.8,11111222 
DISL,ioos:station:DISL:BSCA:1,2018-08-09T15:00:00Z,30.3288,-87.8293,27.4,11111222 
DISL,ioos:station:DISL:BSCA:1,2018-08-09T15:30:00Z,30.3288,-87.8293,27.1,11111222 
DISL,ioos:station:DISL:BSCA:1,2018-08-09T16:00:00Z,30.3288,-87.8293,27.0,11111222 
DISL,ioos:station:DISL:BSCA:1,2018-08-09T16:30:00Z,30.3288,-87.8293,27.4,11111222 
DISL,ioos:station:DISL:BSCA:1,2018-08-09T17:00:00Z,30.3288,-87.8293,27.8,11111222 
DISL,ioos:station:DISL:BSCA:1,2018-08-09T17:30:00Z,30.3288,-87.8293,28.5,11111222 
DISL,ioos:station:DISL:BSCA:1,2018-08-09T18:00:00Z,30.3288,-87.8293,28.6,11111222 
DISL,ioos:station:DISL:BSCA:1,2018-08-09T18:30:00Z,30.3288,-87.8293,29.1,11111222 
DISL,ioos:station:DISL:BSCA:1,2018-08-09T19:00:00Z,30.3288,-87.8293,29.1,11111222 
DISL,ioos:station:DISL:BSCA:1,2018-08-09T19:30:00Z,30.3288,-87.8293,29.1,11111222 
DISL,ioos:station:DISL:BSCA:1,2018-08-09T20:00:00Z,30.3288,-87.8293,29.4,11111222 
DISL,ioos:station:DISL:BSCA:1,2018-08-09T20:30:00Z,30.3288,-87.8293,29.7,11111222 
DISL,ioos:station:DISL:BSCA:1,2018-08-09T21:00:00Z,30.3288,-87.8293,29.5,11111222 
DISL,ioos:station:DISL:BSCA:1,2018-08-09T21:30:00Z,30.3288,-87.8293,29.5,11111222 
DISL,ioos:station:DISL:BSCA:1,2018-08-09T22:00:00Z,30.3288,-87.8293,29.6,11111222 
DISL,ioos:station:DISL:BSCA:1,2018-08-09T22:30:00Z,30.3288,-87.8293,29.7,11111222 
DISL,ioos:station:DISL:BSCA:1,2018-08-09T23:00:00Z,30.3288,-87.8293,29.7,11111222 
DISL,ioos:station:DISL:BSCA:1,2018-08-09T23:30:00Z,30.3288,-87.8293,29.8,11111222 
DISL,ioos:station:DISL:BSCA:1,2018-08-10T00:00:00Z,30.3288,-87.8293,29.7,11111222 
DISL,ioos:station:DISL:BSCA:1,2018-08-10T00:30:00Z,30.3288,-87.8293,29.5,11111222 
DISL,ioos:station:DISL:BSCA:1,2018-08-10T01:00:00Z,30.3288,-87.8293,29.6,11111222 
DISL,ioos:station:DISL:BSCA:1,2018-08-10T01:30:00Z,30.3288,-87.8293,29.5,11111222 
DISL,ioos:station:DISL:BSCA:1,2018-08-10T02:00:00Z,30.3288,-87.8293,29.5,11111222 
DISL,ioos:station:DISL:BSCA:1,2018-08-10T02:30:00Z,30.3288,-87.8293,29.4,11111222 
DISL,ioos:station:DISL:BSCA:1,2018-08-10T03:00:00Z,30.3288,-87.8293,29.4,11111222 
DISL,ioos:station:DISL:BSCA:1,2018-08-10T03:30:00Z,30.3288,-87.8293,29.6,11111222 
DISL,ioos:station:DISL:BSCA:1,2018-08-10T04:00:00Z,30.3288,-87.8293,29.3,11111222 
DISL,ioos:station:DISL:BSCA:1,2018-08-10T04:30:00Z,30.3288,-87.8293,29.4,11111222 
DISL,ioos:station:DISL:BSCA:1,2018-08-10T05:00:00Z,30.3288,-87.8293,29.4,11111222 
DISL,ioos:station:DISL:BSCA:1,2018-08-10T05:30:00Z,30.3288,-87.8293,29.5,11111222 
DISL,ioos:station:DISL:BSCA:1,2018-08-10T06:00:00Z,30.3288,-87.8293,29.3,11111222 
DISL,ioos:station:DISL:BSCA:1,2018-08-10T06:30:00Z,30.3288,-87.8293,29.3,11111222 
DISL,ioos:station:DISL:BSCA:1,2018-08-10T07:00:00Z,30.3288,-87.8293,29.1,11111222 
DISL,ioos:station:DISL:BSCA:1,2018-08-10T07:30:00Z,30.3288,-87.8293,29.3,11111222 
DISL,ioos:station:DISL:BSCA:1,2018-08-10T08:00:00Z,30.3288,-87.8293,29.2,11111222 
DISL,ioos:station:DISL:BSCA:1,2018-08-10T08:30:00Z,30.3288,-87.8293,29.3,11111222 
DISL,ioos:station:DISL:BSCA:1,2018-08-10T09:00:00Z,30.3288,-87.8293,28.2,11111222 
DISL,ioos:station:DISL:BSCA:1,2018-08-10T09:30:00Z,30.3288,-87.8293,26.3,11111222 
DISL,ioos:station:DISL:BSCA:1,2018-08-10T10:00:00Z,30.3288,-87.8293,27.6,11111222 
DISL,ioos:station:DISL:BSCA:1,2018-08-10T10:30:00Z,30.3288,-87.8293,27.6,11111222 
DISL,ioos:station:DISL:BSCA:1,2018-08-10T11:00:00Z,30.3288,-87.8293,28.6,11111222 
DISL,ioos:station:DISL:BSCA:1,2018-08-10T11:30:00Z,30.3288,-87.8293,28.7,11111222 
DISL,ioos:station:DISL:BSCA:1,2018-08-10T12:00:00Z,30.3288,-87.8293,27.1,11111222 
DISL,ioos:station:DISL:BSCA:1,2018-08-10T12:30:00Z,30.3288,-87.8293,25.5,11111222 
DISL,ioos:station:DISL:BSCA:1,2018-08-10T13:00:00Z,30.3288,-87.8293,26.6,11111222 
DISL,ioos:station:DISL:BSCA:1,2018-08-10T13:30:00Z,30.3288,-87.8293,26.6,11111222 
DISL,ioos:station:DISL:BSCA:1,2018-08-10T14:00:00Z,30.3288,-87.8293,27.5,11111222 
DISL,ioos:station:DISL:BSCA:1,2018-08-10T14:30:00Z,30.3288,-87.8293,27.5,11111222 
DISL,ioos:station:DISL:BSCA:1,2018-08-10T15:00:00Z,30.3288,-87.8293,27.3,11111222 
DISL,ioos:station:DISL:BSCA:1,2018-08-10T15:30:00Z,30.3288,-87.8293,27.0,11111222 
DISL,ioos:station:DISL:BSCA:1,2018-08-10T16:00:00Z,30.3288,-87.8293,27.5,11111222 
DISL,ioos:station:DISL:BSCA:1,2018-08-10T16:30:00Z,30.3288,-87.8293,27.6,11111222 
DISL,ioos:station:DISL:BSCA:1,2018-08-10T17:00:00Z,30.3288,-87.8293,27.7,11111222 
DISL,ioos:station:DISL:BSCA:1,2018-08-10T17:30:00Z,30.3288,-87.8293,28.0,11111222 
DISL,ioos:station:DISL:BSCA:1,2018-08-10T18:00:00Z,30.3288,-87.8293,28.0,11111222 
DISL,ioos:station:DISL:BSCA:1,2018-08-10T18:30:00Z,30.3288,-87.8293,28.0,11111222 
DISL,ioos:station:DISL:BSCA:1,2018-08-10T19:00:00Z,30.3288,-87.8293,28.2,11111222 
DISL,ioos:station:DISL:BSCA:1,2018-08-10T19:30:00Z,30.3288,-87.8293,28.5,11111222 
DISL,ioos:station:DISL:BSCA:1,2018-08-10T20:00:00Z,30.3288,-87.8293,28.6,11111222 
DISL,ioos:station:DISL:BSCA:1,2018-08-10T20:30:00Z,30.3288,-87.8293,29.1,11111222 
DISL,ioos:station:DISL:BSCA:1,2018-08-10T21:00:00Z,30.3288,-87.8293,29.0,11111222 
DISL,ioos:station:DISL:BSCA:1,2018-08-10T21:30:00Z,30.3288,-87.8293,29.1,11111222 
DISL,ioos:station:DISL:BSCA:1,2018-08-10T22:00:00Z,30.3288,-87.8293,29.1,11111222 
DISL,ioos:station:DISL:BSCA:1,2018-08-10T22:30:00Z,30.3288,-87.8293,29.4,11111222 
DISL,ioos:station:DISL:BSCA:1,2018-08-10T23:00:00Z,30.3288,-87.8293,27.3,11111222 
DISL,ioos:station:DISL:BSCA:1,2018-08-10T23:30:00Z,30.3288,-87.8293,26.6,11111222 
DISL,ioos:station:DISL:BSCA:1,2018-08-11T00:00:00Z,30.3288,-87.8293,26.9,11111222 
DISL,ioos:station:DISL:BSCA:1,2018-08-11T00:30:00Z,30.3288,-87.8293,27.4,11111222 
DISL,ioos:station:DISL:BSCA:1,2018-08-11T01:00:00Z,30.3288,-87.8293,27.0,11111222 
DISL,ioos:station:DISL:BSCA:1,2018-08-11T01:30:00Z,30.3288,-87.8293,26.6,11111222 
DISL,ioos:station:DISL:BSCA:1,2018-08-11T02:00:00Z,30.3288,-87.8293,26.6,11111222 
DISL,ioos:station:DISL:BSCA:1,2018-08-11T02:30:00Z,30.3288,-87.8293,26.7,11111222 
DISL,ioos:station:DISL:BSCA:1,2018-08-11T03:00:00Z,30.3288,-87.8293,26.7,11111222 
DISL,ioos:station:DISL:BSCA:1,2018-08-11T03:30:00Z,30.3288,-87.8293,27.0,11111222 
DISL,ioos:station:DISL:BSCA:1,2018-08-11T04:00:00Z,30.3288,-87.8293,27.4,11111222 
DISL,ioos:station:DISL:BSCA:1,2018-08-11T04:30:00Z,30.3288,-87.8293,27.6,11111222 
DISL,ioos:station:DISL:BSCA:1,2018-08-11T05:00:00Z,30.3288,-87.8293,26.2,11111222 
DISL,ioos:station:DISL:BSCA:1,2018-08-11T05:30:00Z,30.3288,-87.8293,26.1,11111222 
DISL,ioos:station:DISL:BSCA:1,2018-08-11T06:00:00Z,30.3288,-87.8293,25.5,11111222 
DISL,ioos:station:DISL:BSCA:1,2018-08-11T06:30:00Z,30.3288,-87.8293,25.2,11111222 
DISL,ioos:station:DISL:BSCA:1,2018-08-11T07:00:00Z,30.3288,-87.8293,25.7,11111222 
DISL,ioos:station:DISL:BSCA:1,2018-08-11T07:30:00Z,30.3288,-87.8293,26.8,11111222 
DISL,ioos:station:DISL:BSCA:1,2018-08-11T08:00:00Z,30.3288,-87.8293,26.6,11111222 
DISL,ioos:station:DISL:BSCA:1,2018-08-11T08:05:00Z,30.3288,-87.8293,26.62,1111122 
DISL,ioos:station:DISL:BSCA:1,2018-08-11T08:30:00Z,30.3288,-87.8293,26.4,11111222 
DISL,ioos:station:DISL:BSCA:1,2018-08-11T09:00:00Z,30.3288,-87.8293,26.8,11111222 
DISL,ioos:station:DISL:BSCA:1,2018-08-11T09:30:00Z,30.3288,-87.8293,26.8,11111222 
DISL,ioos:station:DISL:BSCA:1,2018-08-11T10:00:00Z,30.3288,-87.8293,26.6,11111222 
DISL,ioos:station:DISL:BSCA:1,2018-08-11T10:30:00Z,30.3288,-87.8293,26.7,11111222 
DISL,ioos:station:DISL:BSCA:1,2018-08-11T11:00:00Z,30.3288,-87.8293,27.0,11111222 
DISL,ioos:station:DISL:BSCA:1,2018-08-11T11:30:00Z,30.3288,-87.8293,26.9,11111222 
DISL,ioos:station:DISL:BSCA:1,2018-08-11T12:00:00Z,30.3288,-87.8293,26.8,11111222 
DISL,ioos:station:DISL:BSCA:1,2018-08-11T12:30:00Z,30.3288,-87.8293,26.7,11111222 
DISL,ioos:station:DISL:BSCA:1,2018-08-11T13:00:00Z,30.3288,-87.8293,26.7,11111222 
DISL,ioos:station:DISL:BSCA:1,2018-08-11T13:30:00Z,30.3288,-87.8293,26.8,11111222 
DISL,ioos:station:DISL:BSCA:1,2018-08-11T14:00:00Z,30.3288,-87.8293,26.6,11111222 
DISL,ioos:station:DISL:BSCA:1,2018-08-11T14:30:00Z,30.3288,-87.8293,26.8,11111222 
DISL,ioos:station:DISL:BSCA:1,2018-08-11T15:00:00Z,30.3288,-87.8293,27.1,11111222 
DISL,ioos:station:DISL:BSCA:1,2018-08-11T15:30:00Z,30.3288,-87.8293,27.3,11111222 
DISL,ioos:station:DISL:BSCA:1,2018-08-11T16:00:00Z,30.3288,-87.8293,27.6,11111222 
DISL,ioos:station:DISL:BSCA:1,2018-08-11T16:30:00Z,30.3288,-87.8293,27.8,11111222 
DISL,ioos:station:DISL:BSCA:1,2018-08-11T17:00:00Z,30.3288,-87.8293,28.0,11111222 
DISL,ioos:station:DISL:BSCA:1,2018-08-11T17:30:00Z,30.3288,-87.8293,28.6,11111222 
DISL,ioos:station:DISL:BSCA:1,2018-08-11T18:00:00Z,30.3288,-87.8293,28.8,11111222 
DISL,ioos:station:DISL:BSCA:1,2018-08-11T18:30:00Z,30.3288,-87.8293,29.4,11111222 
DISL,ioos:station:DISL:BSCA:1,2018-08-11T19:00:00Z,30.3288,-87.8293,29.6,11111222 
DISL,ioos:station:DISL:BSCA:1,2018-08-11T19:30:00Z,30.3288,-87.8293,29.8,11111222 
DISL,ioos:station:DISL:BSCA:1,2018-08-11T20:00:00Z,30.3288,-87.8293,29.8,11111222 
DISL,ioos:station:DISL:BSCA:1,2018-08-11T20:30:00Z,30.3288,-87.8293,29.6,11111222 
DISL,ioos:station:DISL:BSCA:1,2018-08-11T21:00:00Z,30.3288,-87.8293,29.9,11111222 
DISL,ioos:station:DISL:BSCA:1,2018-08-11T21:30:00Z,30.3288,-87.8293,29.8,11111222 
DISL,ioos:station:DISL:BSCA:1,2018-08-11T22:00:00Z,30.3288,-87.8293,29.2,11111222 
DISL,ioos:station:DISL:BSCA:1,2018-08-11T22:30:00Z,30.3288,-87.8293,29.1,11111222 
DISL,ioos:station:DISL:BSCA:1,2018-08-11T23:00:00Z,30.3288,-87.8293,28.7,11111222 
DISL,ioos:station:DISL:BSCA:1,2018-08-11T23:30:00Z,30.3288,-87.8293,28.2,11111222 
DISL,ioos:station:DISL:BSCA:1,2018-08-12T00:00:00Z,30.3288,-87.8293,27.7,11111222 
DISL,ioos:station:DISL:BSCA:1,2018-08-12T00:30:00Z,30.3288,-87.8293,28.5,11111222 
DISL,ioos:station:DISL:BSCA:1,2018-08-12T01:00:00Z,30.3288,-87.8293,28.5,11111222 
DISL,ioos:station:DISL:BSCA:1,2018-08-12T01:30:00Z,30.3288,-87.8293,28.4,11111222 
DISL,ioos:station:DISL:BSCA:1,2018-08-12T02:00:00Z,30.3288,-87.8293,28.5,11111222 
DISL,ioos:station:DISL:BSCA:1,2018-08-12T02:30:00Z,30.3288,-87.8293,28.4,11111222 
DISL,ioos:station:DISL:BSCA:1,2018-08-12T03:00:00Z,30.3288,-87.8293,28.3,11111222 
DISL,ioos:station:DISL:BSCA:1,2018-08-12T03:30:00Z,30.3288,-87.8293,28.5,11111222 
DISL,ioos:station:DISL:BSCA:1,2018-08-12T04:00:00Z,30.3288,-87.8293,28.3,11111222 
DISL,ioos:station:DISL:BSCA:1,2018-08-12T04:30:00Z,30.3288,-87.8293,28.4,11111222 
DISL,ioos:station:DISL:BSCA:1,2018-08-12T05:00:00Z,30.3288,-87.8293,28.4,11111222 
DISL,ioos:station:DISL:BSCA:1,2018-08-12T05:30:00Z,30.3288,-87.8293,27.8,11111222 
DISL,ioos:station:DISL:BSCA:1,2018-08-12T06:00:00Z,30.3288,-87.8293,27.4,11111222 
DISL,ioos:station:DISL:BSCA:1,2018-08-12T06:30:00Z,30.3288,-87.8293,27.3,11111222 
DISL,ioos:station:DISL:BSCA:1,2018-08-12T07:00:00Z,30.3288,-87.8293,27.3,11111222 
DISL,ioos:station:DISL:BSCA:1,2018-08-12T07:30:00Z,30.3288,-87.8293,27.3,11111222 
DISL,ioos:station:DISL:BSCA:1,2018-08-12T08:00:00Z,30.3288,-87.8293,27.3,11111222 
DISL,ioos:station:DISL:BSCA:1,2018-08-12T08:30:00Z,30.3288,-87.8293,27.3,11111222 
DISL,ioos:station:DISL:BSCA:1,2018-08-12T09:00:00Z,30.3288,-87.8293,27.4,11111222 
DISL,ioos:station:DISL:BSCA:1,2018-08-12T09:30:00Z,30.3288,-87.8293,27.4,11111222 
DISL,ioos:station:DISL:BSCA:1,2018-08-12T10:00:00Z,30.3288,-87.8293,27.1,11111222 
DISL,ioos:station:DISL:BSCA:1,2018-08-12T10:30:00Z,30.3288,-87.8293,27.0,11111222 
DISL,ioos:station:DISL:BSCA:1,2018-08-12T11:00:00Z,30.3288,-87.8293,26.4,11111222 
DISL,ioos:station:DISL:BSCA:1,2018-08-12T11:30:00Z,30.3288,-87.8293,26.0,11111222 
DISL,ioos:station:DISL:BSCA:1,2018-08-12T12:00:00Z,30.3288,-87.8293,25.9,11111222 
DISL,ioos:station:DISL:BSCA:1,2018-08-12T12:30:00Z,30.3288,-87.8293,25.7,11111222 
DISL,ioos:station:DISL:BSCA:1,2018-08-12T13:00:00Z,30.3288,-87.8293,26.3,11111222 
DISL,ioos:station:DISL:BSCA:1,2018-08-12T13:30:00Z,30.3288,-87.8293,26.6,11111222 
DISL,ioos:station:DISL:BSCA:1,2018-08-12T14:00:00Z,30.3288,-87.8293,27.0,11111222 
DISL,ioos:station:DISL:BSCA:1,2018-08-12T14:30:00Z,30.3288,-87.8293,27.2,11111222 
DISL,ioos:station:DISL:BSCA:1,2018-08-12T15:00:00Z,30.3288,-87.8293,27.3,11111222 